Regional Weather Roundup
Issued by NWS

Home | Current Version | Previous Version | Text Only | Print | Product List | Glossary Off
Versions: 1 2 3 4 5 6 7 8 9 10 11 12 13 14 15 16 17 18 19 20 21 22 23 24 25 26 27 28

000
ASUS45 KSLC 281610
RWRUT

UTAH REGIONAL WEATHER ROUNDUP
NATIONAL WEATHER SERVICE SALT LAKE CITY UT
1000 AM MDT THU JUL 28 2016

UTZ001>011-023>025-281700-

NORTHERN UTAH

CITY           SKY/WX    TMP DP  RH WIND       PRES   REMARKS
BRIGHAM CITY     N/A     78  40  26 CALM      30.12S
DUGWAY         MOSUNNY   84  27  12 MISG      30.13
HILL AFB       MOSUNNY   84  36  17 E10       30.13S
LOGAN          SUNNY     74  44  34 CALM      30.16S
OGDEN          SUNNY     83  36  18 NE8       30.12S
PROVO AIRPORT  MOSUNNY   79  41  25 VRB6      30.14S
SALT LAKE CITY MOSUNNY   86  41  20 SW3       30.11R
VERNAL         SUNNY     76  31  19 VRB5      30.18F
WENDOVER       SUNNY     82  45  26 SE12      30.14R
HEBER CITY     MOSUNNY   66  36  32 CALM      30.23S
WEST JORDAN    SUNNY     81  43  26 CALM      30.15R

$$

UTZ012>022-026-027-281700-

SOUTHERN/CENTRAL UTAH

CITY           SKY/WX    TMP DP  RH WIND       PRES   REMARKS
BLANDING       SUNNY     83  39  21 S12G17    30.32S
BRYCE CANYON   SUNNY     80  34  19 CALM      30.38F
CEDAR CITY     SUNNY     84  43  23 VRB5      30.19S
DELTA          MOSUNNY   88  32  13 W5        30.13S
MILFORD        SUNNY     84  35  17 CALM      30.16R
MOAB/CYNLANDS  SUNNY     88  31  13 SE6       30.10R
PRICE          MOSUNNY   83  26  12 W3        30.22F
ST GEORGE      MOSUNNY   93  45  18 S3        29.98F

$$

REGIONAL REPORTS     COLORADO/ARIZONA

CITY           SKY/WX    TMP DP  RH WIND       PRES   REMARKS
CRAIG, CO      SUNNY     71  33  24 CALM      30.28F
GRAND JUNCTION SUNNY     81  34  18 SE13      30.14F
RIFLE          SUNNY     75  34  22 NE5       30.22F
MONTROSE       SUNNY     76  43  30 CALM      30.24F
CORTEZ         SUNNY     84  46  26 CALM      30.24F
PAGE, AZ       MOSUNNY   89  38  16 E7        30.08R
GRAND CANYON   SUNNY     82  43  25 VRB3      30.31S
KINGMAN        MOSUNNY   95  51  22 SW7       30.03R HX  92
FLAGSTAFF      SUNNY     73  54  51 SW8       30.35F

$$

REGIONAL REPORTS    NEVADA/IDAHO/WYOMING

CITY           SKY/WX    TMP DP  RH WIND       PRES   REMARKS
LAS VEGAS, NV  PTSUNNY   99  44  15 CALM      29.86R HX  95
ELY            SUNNY     79  25  13 CALM      30.28F
ELKO           SUNNY     77  30  17 CALM      30.22S
POCATELLO, ID  SUNNY     73  44  35 VRB3      30.18F
BURLEY         SUNNY     74  50  42 W5        30.16S
EVANSTON, WY   SUNNY     77  30  17 CALM      30.34S
ROCK SPRINGS   SUNNY     70  48  45 E13       30.32S
KEMMERER         N/A     75  28  17 E7        30.35S

$$




USA.gov is the U.S. government's official web portal to all federal, state and local government web resources and services.